When you browse on this site, cookies collect data to enhance your experience and personalize the content and advertising you see.
Visit our Privacy Policy to learn more. By continuing to use the site, you agree to this use of cookies and data.
  • In Switzerland
  • List of Countries
  • For 7 days
  • Water Temperature
  • Satellite Maps
  • Weather Map
  • Weather Widgets
  • user-avatar
    Login

    Hourly Weather Cuiaba

    Today, 22 January, Tuesday

    Time Temperature Precipitation Wind Pressure Humidity
    00:00 +27°C° 0.2 mm 1 mps 741 mmHg 73%
    01:00 +27°C° 0.2 mm 1 mps 741 mmHg 76%
    02:00 +27°C° 0.2 mm 1 mps 741 mmHg 78%
    03:00 +26°C° 0 mm 1 mps 741 mmHg 79%
    04:00 +26°C° 0 mm 1 mps 741 mmHg 79%
    05:00 +26°C° 0 mm 1 mps 741 mmHg 80%
    06:00 +26°C° 0 mm 0 mps 741 mmHg 73%
    07:00 +28°C° 0 mm 0 mps 742 mmHg 66%
    08:00 +30°C° 0 mm 0 mps 742 mmHg 59%
    09:00 +33°C° 0 mm 0 mps 742 mmHg 50%
    10:00 +36°C° 0 mm 0 mps 742 mmHg 41%
    11:00 +40°C° 0 mm 0 mps 742 mmHg 33%
    12:00 +38°C° 0 mm 0 mps 741 mmHg 34%
    13:00 +37°C° 0 mm 0 mps 741 mmHg 35%
    14:00 +36°C° 0 mm 0 mps 740 mmHg 36%
    15:00 +36°C° 0 mm 0 mps 739 mmHg 36%
    16:00 +36°C° 0 mm 0 mps 739 mmHg 36%
    17:00 +36°C° 0 mm 0 mps 739 mmHg 36%
    18:00 +34°C° 0 mm 0 mps 739 mmHg 39%
    19:00 +32°C° 0 mm 0 mps 739 mmHg 43%
    20:00 +31°C° 0 mm 0 mps 739 mmHg 46%
    21:00 +32°C° 0 mm 1 mps 740 mmHg 48%
    22:00 +32°C° 0 mm 1 mps 740 mmHg 50%
    23:00 +31°C° 0 mm 1 mps 740 mmHg 51%

    Tomorrow, 23 January, Wednesday

    Time Temperature Precipitation Wind Pressure Humidity
    00:00 +31°C° 0 mm 1 mps 740 mmHg 54%
    01:00 +31°C° 0 mm 1 mps 740 mmHg 57%
    02:00 +30°C° 0 mm 1 mps 739 mmHg 59%
    03:00 +30°C° 0 mm 1 mps 739 mmHg 61%
    04:00 +29°C° 0 mm 1 mps 740 mmHg 63%
    05:00 +29°C° 0 mm 1 mps 740 mmHg 65%
    06:00 +31°C° 0 mm 1 mps 740 mmHg 61%
    07:00 +32°C° 0 mm 1 mps 741 mmHg 56%
    08:00 +34°C° 0 mm 1 mps 742 mmHg 51%
    09:00 +37°C° 0 mm 1 mps 742 mmHg 45%
    10:00 +40°C° 0 mm 1 mps 742 mmHg 39%
    11:00 +42°C° 0 mm 1 mps 742 mmHg 33%
    12:00 +41°C° 0 mm 1 mps 741 mmHg 34%
    13:00 +41°C° 0 mm 1 mps 740 mmHg 35%
    14:00 +40°C° 0 mm 1 mps 739 mmHg 36%
    15:00 +39°C° 0 mm 1 mps 738 mmHg 37%
    16:00 +37°C° 0 mm 1 mps 738 mmHg 39%
    17:00 +38°C° 0 mm 2 mps 738 mmHg 41%
    18:00 +36°C° 0 mm 1 mps 738 mmHg 44%
    19:00 +34°C° 0 mm 1 mps 738 mmHg 47%
    20:00 +33°C° 0 mm 1 mps 738 mmHg 50%
    21:00 +32°C° 0.6 mm 1 mps 739 mmHg 58%
    22:00 +30°C° 0.6 mm 2 mps 739 mmHg 65%
    23:00 +29°C° 0.6 mm 2 mps 739 mmHg 73%

    Day after tomorrow, 24 January, Thursday

    Time Temperature Precipitation Wind Pressure Humidity
    00:00 +28°C° 0.5 mm 2 mps 739 mmHg 75%
    01:00 +28°C° 0.5 mm 1 mps 739 mmHg 76%
    02:00 +28°C° 0.5 mm 1 mps 739 mmHg 78%
    03:00 +28°C° 0.2 mm 1 mps 739 mmHg 80%
    04:00 +27°C° 0.2 mm 1 mps 739 mmHg 82%
    05:00 +27°C° 0.2 mm 1 mps 739 mmHg 85%
    06:00 +28°C° 0 mm 1 mps 739 mmHg 79%
    07:00 +30°C° 0 mm 1 mps 740 mmHg 73%
    08:00 +31°C° 0 mm 1 mps 740 mmHg 67%
    09:00 +34°C° 0.1 mm 2 mps 740 mmHg 57%
    10:00 +37°C° 0.1 mm 2 mps 740 mmHg 48%
    11:00 +39°C° 0.1 mm 3 mps 740 mmHg 38%
    12:00 +39°C° 0 mm 2 mps 739 mmHg 38%
    13:00 +39°C° 0 mm 2 mps 738 mmHg 38%
    14:00 +39°C° 0 mm 1 mps 738 mmHg 38%
    15:00 +37°C° 0 mm 1 mps 737 mmHg 41%
    16:00 +36°C° 0 mm 1 mps 737 mmHg 44%
    17:00 +33°C° 0 mm 0 mps 737 mmHg 47%
    18:00 +32°C° 0.1 mm 0 mps 737 mmHg 51%
    19:00 +33°C° 0.1 mm 1 mps 738 mmHg 55%
    20:00 +32°C° 0.1 mm 1 mps 738 mmHg 58%
    21:00 +31°C° 0.3 mm 1 mps 739 mmHg 62%
    22:00 +28°C° 0.3 mm 0 mps 739 mmHg 66%
    23:00 +27°C° 0.3 mm 0 mps 739 mmHg 70%

    25 January, Friday

    Time Temperature Precipitation Wind Pressure Humidity
    00:00 +29°C° 0 mm 1 mps 739 mmHg 71%
    01:00 +28°C° 0 mm 1 mps 738 mmHg 73%
    02:00 +28°C° 0 mm 1 mps 738 mmHg 75%
    03:00 +27°C° 0 mm 1 mps 738 mmHg 76%
    04:00 +27°C° 0 mm 1 mps 738 mmHg 78%
    05:00 +27°C° 0 mm 1 mps 738 mmHg 80%
    06:00 +28°C° 0 mm 2 mps 739 mmHg 74%
    07:00 +30°C° 0 mm 2 mps 739 mmHg 68%
    08:00 +32°C° 0 mm 2 mps 740 mmHg 62%
    09:00 +35°C° 0 mm 3 mps 739 mmHg 54%
    10:00 +37°C° 0 mm 3 mps 739 mmHg 45%
    11:00 +39°C° 0 mm 3 mps 739 mmHg 37%
    12:00 +39°C° 0 mm 2 mps 738 mmHg 38%
    13:00 +38°C° 0 mm 2 mps 737 mmHg 38%
    14:00 +37°C° 0 mm 1 mps 737 mmHg 38%
    15:00 +36°C° 0 mm 1 mps 736 mmHg 42%
    16:00 +34°C° 0 mm 1 mps 736 mmHg 46%
    17:00 +33°C° 0 mm 1 mps 736 mmHg 49%
    18:00 +32°C° 0.1 mm 1 mps 736 mmHg 52%
    19:00 +32°C° 0.1 mm 1 mps 737 mmHg 54%
    20:00 +31°C° 0.1 mm 1 mps 737 mmHg 56%
    21:00 +30°C° 0 mm 1 mps 738 mmHg 57%
    22:00 +30°C° 0 mm 1 mps 738 mmHg 58%
    23:00 +29°C° 0 mm 1 mps 738 mmHg 59%

    26 January, Saturday

    Time Temperature Precipitation Wind Pressure Humidity
    00:00 +29°C° 0 mm 1 mps 738 mmHg 61%
    01:00 +28°C° 0 mm 2 mps 738 mmHg 63%
    02:00 +28°C° 0 mm 2 mps 738 mmHg 65%
    03:00 +27°C° 0.2 mm 2 mps 738 mmHg 70%
    04:00 +26°C° 0.2 mm 2 mps 738 mmHg 74%
    05:00 +26°C° 0.2 mm 2 mps 738 mmHg 79%
    06:00 +27°C° 0.2 mm 2 mps 739 mmHg 75%
    07:00 +29°C° 0.2 mm 2 mps 740 mmHg 70%
    08:00 +30°C° 0.2 mm 2 mps 740 mmHg 66%
    09:00 +34°C° 0 mm 2 mps 740 mmHg 57%
    10:00 +36°C° 0 mm 2 mps 740 mmHg 48%
    11:00 +38°C° 0 mm 3 mps 740 mmHg 39%
    12:00 +38°C° 0 mm 2 mps 739 mmHg 40%
    13:00 +38°C° 0 mm 2 mps 738 mmHg 41%
    14:00 +36°C° 0 mm 1 mps 737 mmHg 41%
    15:00 +36°C° 0.1 mm 2 mps 737 mmHg 44%
    16:00 +35°C° 0.1 mm 2 mps 737 mmHg 48%
    17:00 +34°C° 0.1 mm 3 mps 736 mmHg 51%
    18:00 +32°C° 0.5 mm 2 mps 737 mmHg 58%
    19:00 +30°C° 0.5 mm 1 mps 737 mmHg 64%
    20:00 +29°C° 0.5 mm 1 mps 737 mmHg 71%
    21:00 +28°C° 0.1 mm 1 mps 738 mmHg 75%
    22:00 +28°C° 0.1 mm 1 mps 738 mmHg 78%
    23:00 +27°C° 0.1 mm 1 mps 738 mmHg 81%

    27 January, Sunday

    Time Temperature Precipitation Wind Pressure Humidity
    00:00 +27°C° 0.1 mm 1 mps 738 mmHg 82%
    01:00 +27°C° 0.1 mm 1 mps 738 mmHg 82%
    02:00 +27°C° 0.1 mm 2 mps 738 mmHg 83%
    03:00 +27°C° 0 mm 2 mps 738 mmHg 83%
    04:00 +26°C° 0 mm 2 mps 738 mmHg 83%
    05:00 +26°C° 0 mm 2 mps 738 mmHg 83%
    06:00 +27°C° 0 mm 2 mps 739 mmHg 79%
    07:00 +28°C° 0 mm 2 mps 740 mmHg 76%
    08:00 +29°C° 0 mm 1 mps 740 mmHg 72%
    09:00 +32°C° 0.2 mm 2 mps 740 mmHg 62%
    10:00 +35°C° 0.2 mm 2 mps 740 mmHg 53%
    11:00 +37°C° 0.2 mm 2 mps 740 mmHg 44%
    12:00 +37°C° 0 mm 2 mps 739 mmHg 45%
    13:00 +36°C° 0 mm 2 mps 739 mmHg 46%
    14:00 +36°C° 0 mm 3 mps 738 mmHg 47%
    15:00 +35°C° 0 mm 3 mps 738 mmHg 49%
    16:00 +35°C° 0 mm 3 mps 737 mmHg 50%
    17:00 +34°C° 0 mm 4 mps 737 mmHg 52%
    18:00 +33°C° 0 mm 4 mps 738 mmHg 57%
    19:00 +30°C° 0 mm 3 mps 738 mmHg 62%
    20:00 +29°C° 0 mm 3 mps 739 mmHg 66%
    21:00 +29°C° 0 mm 3 mps 739 mmHg 66%
    22:00 +29°C° 0 mm 3 mps 739 mmHg 65%
    23:00 +28°C° 0 mm 4 mps 740 mmHg 65%
    Show more